Wetbulb
71.85 70.33 71.38 72.71 73.06 72.97 73.14 73.14 73.39 73.38 72.76 72.37 72.64 72.00 71.82 72.85 72.91 72.64 72.80 74.16 75.18 75.52 76.29 75.78 74.67 75.19 75.33 75.86 75.38 75.08 74.96 73.91 73.46 74.39 74.13 74.13 73.90 74.09 73.56 73.01 73.22 72.63 72.09
70.52 70.37 70.91 71.01 71.25 72.04 72.70 72.58 71.66 71.89 71.84 70.76 69.97 71.01 70.97 71.21 71.78 72.53 72.71 73.86 75.22 75.20 75.66 75.96 75.36 75.78 75.65 75.97 75.81 75.64 75.04 74.79 74.27 74.57 74.80 74.00 74.22 74.05 73.90 72.93 73.69 73.20 72.95
71.39 71.13 71.10 70.27 70.16 69.82 71.16 71.07 70.35 69.99 69.79 69.35 68.99 68.98 69.88 69.99 69.91 70.65 72.25 72.93 73.42 74.74 75.62 75.43 75.43 76.10 76.19 76.67 75.98 76.07 75.80 75.45 74.92 74.52 74.87 74.20 74.52 74.22 73.77 73.98 73.72 73.62 74.03
68.73 68.99 70.51 70.90 70.24 69.91 69.12 69.37 68.83 68.35 68.13 67.86 67.79 68.06 68.40 68.64 69.18 69.55 71.38 72.95 73.21 72.74 74.68 75.68 75.23 75.20 75.56 76.58 76.71 76.34 75.98 75.80 75.20 74.82 74.95 74.77 74.64 74.38 74.28 74.11 73.92 74.02 73.60
70.79 70.05 70.49 71.08 71.89 70.75 70.09 69.17 68.60 68.31 67.25 66.69 65.94 66.36 66.60 67.00 67.63 68.68 70.17 71.62 72.65 73.69 73.17 74.05 75.06 74.99 75.61 75.72 75.98 76.03 76.35 75.62 75.37 74.75 75.09 75.27 74.69 74.26 74.00 74.23 74.18 73.94 73.74
71.90 71.60 71.44 71.59 71.15 70.54 69.98 69.08 68.53 68.13 67.77 67.02 66.55 66.86 67.20 66.70 67.98 68.79 69.08 71.11 72.51 73.10 73.82 73.77 74.33 74.00 75.22 75.16 74.94 74.79 74.74 74.77 74.75 74.85 75.02 74.94 74.25 73.89 73.56 73.67 73.66 73.72 73.73
68.71 68.71 69.01 69.36 70.48 69.88 69.94 69.14 68.31 67.45 66.57 66.49 66.17 66.02 66.74 68.20 68.64 69.44 70.35 70.39 71.59 72.97 73.27 73.98 74.09 74.14 74.04 74.52 74.15 74.72 75.04 74.73 74.02 74.22 74.05 73.75 73.75 73.43 73.47 73.25 72.97 72.90 73.35
69.78 68.38 68.03 69.78 69.81 69.43 69.34 69.00 68.02 66.98 66.39 66.26 64.98 64.62 64.10 65.53 66.06 68.35 69.63 70.02 70.17 71.49 72.48 72.94 73.39 73.24 73.56 73.74 73.97 73.53 75.00 74.80 74.82 74.32 73.04 72.95 71.18 72.46 72.70 72.48 72.23 72.20 72.60
70.31 70.25 69.81 69.37 69.07 68.85 68.56 68.47 67.95 67.25 65.09 67.09 66.81 65.93 61.84 61.92 64.14 65.58 67.85 69.05 70.25 70.68 71.59 72.29 72.80 73.26 73.24 73.60 73.48 73.55 73.59 73.51 74.57 75.00 73.74 72.91 71.99 72.10 71.27 72.18 72.15 71.74 71.83
69.65 70.17 70.00 69.66 69.47 69.12 68.56 68.53 68.85 67.72 66.89 65.39 67.58 67.45 67.25 65.94 61.87 60.30 66.58 66.00 69.38 69.23 70.05 71.11 71.86 72.40 72.82 73.42 72.64 72.40 71.92 72.01 72.81 72.82 72.29 72.10 72.51 72.63 71.72 72.32 72.58 72.22 72.03
68.30 68.67 69.38 69.18 68.87 69.05 69.03 68.71 68.60 68.67 67.56 66.66 66.39 66.23 66.64 67.27 67.46 65.08 62.53 64.01 66.96 67.93 68.13 68.58 71.04 71.82 72.26 71.47 72.28 72.20 71.23 70.92 70.69 70.90 71.01 70.60 71.14 71.47 71.73 71.63 71.66 71.74 72.18
66.94 67.61 68.59 68.78 68.89 69.05 69.01 68.87 68.78 68.42 68.24 67.68 67.25 66.94 66.17 65.86 65.45 64.22 62.82 62.85 63.26 66.18 67.90 69.19 69.41 69.77 69.53 70.54 71.62 70.75 69.91 68.94 68.23 68.19 68.16 68.21 68.85 69.80 70.33 70.06 71.32 71.97 71.84
65.80 66.84 67.97 67.93 68.02 68.56 68.92 68.76 68.40 68.22 68.26 67.47 67.34 67.02 67.66 67.84 67.52 66.98 64.86 63.72 63.66 64.83 66.20 67.13 68.02 69.51 69.64 69.28 68.92 69.05 69.16 67.88 66.78 66.36 66.67 67.10 67.76 68.61 68.96 69.54 70.19 70.54 70.91
66.29 68.81 67.43 67.05 67.07 67.68 68.02 67.81 67.47 67.81 67.68 67.41 67.14 67.45 68.04 68.35 69.02 67.66 66.08 64.66 62.05 63.04 64.49 65.46 66.57 66.36 66.77 67.02 67.43 66.42 66.07 65.69 65.13 64.65 64.74 65.05 65.80 66.67 67.39 67.77 67.99 68.30 68.75
67.46 66.14 65.87 65.44 65.26 65.37 65.59 65.70 65.30 65.46 66.51 67.27 67.09 67.37 67.32 67.97 68.98 68.73 67.97 67.70 65.32 60.47 61.40 64.39 65.00 64.81 64.40 64.78 64.66 63.18 63.35 64.00 63.71 62.88 62.51 62.73 63.29 64.05 64.63 65.19 65.32 65.66 66.09
66.09 65.04 64.55 64.49 64.19 64.31 64.19 64.00 63.80 64.11 64.42 64.94 65.40 66.01 66.61 67.47 68.13 68.71 67.70 67.93 67.50 64.26 61.34 64.37 63.03 61.82 62.24 62.54 63.04 61.49 61.97 62.35 62.40 61.69 61.01 60.78 61.31 61.73 61.95 62.51 63.07 63.64 64.31
64.63 64.23 64.01 63.50 63.06 63.16 63.48 63.06 62.58 62.26 62.23 62.73 63.61 64.19 64.51 65.46 65.89 67.02 68.47 68.31 67.14 66.28 62.00 61.80 62.24 61.01 59.84 59.42 59.51 59.53 60.05 60.05 60.41 60.50 59.83 59.23 58.90 58.78 59.20 59.42 59.86 60.49 61.29
63.96 63.73 63.15 62.74 62.31 61.69 61.07 60.69 60.44 60.63 60.48 60.81 61.33 62.57 61.94 63.49 63.15 64.41 65.44 65.80 66.98 66.17 63.24 59.49 60.05 58.10 57.98 58.58 58.27 57.75 57.73 58.04 58.28 59.71 58.71 57.73 56.99 56.33 55.66 55.44 55.13 55.39 56.09
63.21 62.93 62.80 62.12 61.71 61.05 60.21 59.81 59.51 59.54 59.55 59.85 60.75 61.23 61.49 62.27 61.72 61.98 62.59 62.69 64.05 64.13 63.60 61.31 58.66 58.82 58.00 58.06 56.77 56.57 55.63 55.13 56.29 57.46 57.00 57.12 56.37 55.46 54.70 53.83 52.95 52.46 51.84
62.48 61.88 61.81 62.14 62.06 61.59 60.47 59.44 58.79 58.29 58.15 57.66 58.19 58.99 59.96 60.83 61.36 61.65 61.50 61.84 62.51 61.48 60.78 59.24 57.82 57.31 57.13 57.21 57.13 55.30 53.15 54.16 53.32 53.53 54.36 54.15 54.94 55.60 54.91 53.87 53.21 52.55 51.85
61.69 61.29 60.30 59.75 59.96 60.65 60.66 59.41 58.65 58.14 57.76 56.06 55.39 56.05 59.11 61.07 61.55 61.83 61.11 61.11 62.32 60.92 59.63 58.60 58.04 57.29 56.23 55.70 55.26 55.68 53.22 53.59 53.95 54.31 53.49 52.06 51.60 51.68 52.59 53.48 53.14 52.71 52.31
60.95 60.27 58.81 57.95 57.85 58.58 58.11 59.80 59.61 58.07 56.24 54.27 53.64 53.78 54.19 55.37 57.28 58.57 59.30 59.85 60.54 61.60 59.92 59.08 58.56 57.51 57.11 57.27 55.67 54.74 53.07 53.15 52.42 56.01 53.51 52.37 53.94 51.63 52.07 52.68 52.95 52.19 51.81
60.77 58.52 57.18 56.50 56.18 58.04 56.45 57.70 58.61 56.55 55.34 54.37 53.07 52.18 51.51 51.33 53.40 54.57 54.91 54.97 55.30 56.96 59.25 60.32 58.91 57.71 57.89 58.12 56.91 54.65 54.38 54.79 53.79 54.25 54.43 51.55 53.66 52.53 53.72 53.54 52.48 51.75 51.29
60.02 57.44 55.40 55.06 55.23 54.74 54.26 54.76 56.10 55.96 54.78 53.84 53.68 53.46 52.21 52.13 52.47 52.46 52.32 51.33 51.68 53.76 54.43 55.39 55.89 55.57 58.67 59.11 58.19 57.30 56.35 52.90 53.82 53.82 54.15 50.67 51.90 51.08 53.34 54.08 52.68 51.81 51.19
59.40 57.05 55.29 55.01 54.09 53.04 51.73 52.55 54.96 54.24 52.93 52.08 52.08 53.54 54.19 53.78 51.96 51.32 51.62 51.10 51.65 51.55 52.06 52.62 52.33 52.05 53.87 54.40 55.55 57.40 55.52 54.65 53.16 53.45 55.06 51.66 50.95 51.43 50.79 53.20 53.64 52.08 50.84
58.40 54.87 53.31 53.25 51.98 51.52 48.57 51.10 53.26 53.31 52.02 51.43 50.90 50.61 50.82 52.99 50.34 50.01 53.50 52.73 51.87 51.91 52.34 52.70 51.26 51.05 50.90 51.26 51.08 52.50 54.64 54.33 54.60 53.15 55.80 54.34 51.86 51.64 50.89 52.67 53.12 53.29 52.12
MSLP
1016.92 1017.06 1017.08 1017.27 1017.44 1017.51 1017.66 1017.80 1017.95 1017.99 1018.16 1018.30 1018.47 1018.68 1018.85 1018.87 1018.94 1019.02 1019.13 1019.07 1019.04 1019.07 1019.38 1019.61 1020.04 1020.18 1020.45 1020.63 1020.84 1021.06 1021.24 1021.45 1021.56 1021.58 1021.70 1021.82 1022.00 1022.18 1022.35 1022.48 1022.60 1022.76 1022.90
1016.72 1016.86 1017.10 1017.31 1017.42 1017.54 1017.57 1017.74 1017.96 1018.07 1018.11 1018.30 1018.43 1018.55 1018.62 1018.71 1018.80 1018.83 1018.83 1018.88 1018.77 1018.86 1019.09 1019.41 1019.60 1019.78 1019.93 1020.16 1020.43 1020.66 1020.80 1021.00 1021.23 1021.38 1021.42 1021.55 1021.73 1021.93 1022.04 1022.13 1022.23 1022.43 1022.64
1016.51 1016.78 1016.86 1017.07 1017.13 1017.40 1017.56 1017.71 1017.90 1018.10 1018.19 1018.32 1018.47 1018.48 1018.61 1018.66 1018.69 1018.72 1018.78 1018.78 1018.66 1018.55 1018.60 1018.92 1019.13 1019.29 1019.50 1019.67 1019.92 1020.16 1020.36 1020.54 1020.75 1021.03 1021.17 1021.29 1021.38 1021.62 1021.82 1021.88 1021.90 1022.03 1022.21
1016.33 1016.54 1016.73 1016.84 1017.08 1017.40 1017.67 1017.89 1018.00 1018.15 1018.13 1018.21 1018.36 1018.38 1018.40 1018.52 1018.63 1018.53 1018.63 1018.51 1018.38 1018.31 1018.22 1018.21 1018.61 1018.83 1018.92 1019.13 1019.30 1019.59 1019.87 1020.04 1020.27 1020.47 1020.70 1020.87 1021.05 1021.29 1021.43 1021.57 1021.61 1021.64 1021.82
1016.01 1016.15 1016.30 1016.38 1016.51 1016.67 1017.07 1017.32 1017.68 1017.98 1018.03 1018.09 1018.24 1018.17 1018.16 1018.15 1018.10 1017.99 1018.05 1018.00 1017.96 1017.92 1018.01 1017.98 1018.16 1018.39 1018.55 1018.75 1018.84 1019.03 1019.19 1019.42 1019.72 1019.96 1020.23 1020.39 1020.50 1020.70 1020.92 1021.03 1021.17 1021.31 1021.42
1015.79 1015.89 1016.11 1016.12 1016.31 1016.74 1016.89 1017.15 1017.45 1017.68 1017.84 1017.89 1017.93 1017.92 1017.87 1017.74 1017.69 1017.77 1017.48 1017.43 1017.49 1017.58 1017.60 1017.68 1017.76 1017.87 1018.00 1018.16 1018.46 1018.60 1018.75 1018.92 1019.21 1019.36 1019.45 1019.63 1019.80 1020.04 1020.16 1020.38 1020.52 1020.64 1020.81
1015.54 1015.61 1015.89 1016.07 1016.13 1016.48 1016.65 1016.89 1017.22 1017.41 1017.58 1017.72 1017.96 1017.73 1017.48 1017.38 1017.39 1017.35 1017.11 1017.07 1017.04 1017.19 1017.22 1017.21 1017.38 1017.52 1017.62 1017.67 1017.83 1018.00 1018.18 1018.34 1018.75 1018.76 1019.13 1019.80 1019.57 1019.66 1019.77 1019.70 1019.72 1019.84 1019.96
1015.67 1015.89 1015.99 1016.11 1016.26 1016.33 1016.46 1016.72 1017.04 1017.32 1017.48 1017.61 1017.65 1017.83 1017.54 1017.23 1017.04 1016.99 1017.02 1017.06 1016.97 1016.92 1016.83 1016.86 1016.93 1017.11 1017.18 1017.31 1017.53 1017.60 1017.44 1017.62 1017.88 1018.07 1018.51 1018.61 1019.12 1019.39 1019.26 1019.21 1019.15 1019.11 1019.15
1015.79 1015.87 1015.90 1015.91 1016.14 1016.23 1016.33 1016.51 1016.78 1017.04 1017.18 1017.28 1017.34 1017.31 1017.51 1017.26 1017.10 1016.93 1016.87 1017.06 1016.94 1016.93 1016.74 1016.66 1016.64 1016.69 1016.84 1017.00 1017.19 1017.17 1017.16 1017.08 1017.00 1017.18 1017.59 1018.06 1018.21 1017.85 1018.78 1018.77 1018.88 1018.66 1018.68
1016.13 1016.10 1016.02 1015.93 1015.92 1016.02 1016.14 1016.19 1016.32 1016.57 1016.79 1016.88 1017.03 1017.08 1017.11 1017.01 1016.94 1017.16 1017.12 1017.20 1017.07 1016.92 1016.79 1016.51 1016.45 1016.49 1016.68 1016.82 1017.03 1017.10 1017.25 1017.30 1017.25 1017.32 1017.65 1017.95 1017.93 1017.81 1018.11 1018.30 1017.75 1017.27 1018.07
1016.25 1016.11 1016.04 1015.96 1015.93 1015.83 1015.78 1015.84 1016.00 1016.14 1016.32 1016.47 1016.64 1016.64 1016.88 1016.97 1016.88 1017.02 1017.32 1017.53 1017.32 1017.19 1016.98 1016.77 1016.53 1016.56 1016.72 1017.08 1017.12 1017.19 1017.49 1017.73 1017.88 1017.97 1018.04 1018.19 1018.03 1017.93 1017.87 1017.75 1017.64 1017.46 1017.57
1016.65 1016.42 1016.14 1015.90 1015.76 1015.76 1015.62 1015.50 1015.73 1015.87 1015.93 1016.12 1016.22 1016.22 1016.23 1016.41 1016.58 1016.80 1017.12 1017.18 1017.47 1017.44 1017.28 1017.19 1017.10 1016.97 1017.24 1017.34 1017.28 1017.46 1017.72 1018.02 1018.20 1018.11 1018.17 1018.16 1018.10 1017.94 1017.75 1017.72 1017.46 1017.38 1017.30
1016.84 1016.71 1016.36 1016.15 1016.01 1015.78 1015.56 1015.51 1015.68 1015.73 1015.84 1015.92 1015.99 1015.98 1015.96 1015.87 1015.99 1016.24 1016.56 1017.12 1017.29 1017.46 1017.45 1017.64 1017.61 1017.50 1017.63 1017.67 1017.89 1018.07 1018.15 1018.34 1018.34 1018.43 1018.36 1018.23 1017.99 1017.83 1017.64 1017.54 1017.40 1017.23 1016.95
1016.80 1016.65 1016.56 1016.36 1016.25 1016.13 1015.97 1015.72 1015.77 1015.88 1015.84 1015.91 1015.85 1015.93 1015.85 1015.85 1015.90 1015.88 1015.96 1016.47 1017.14 1017.51 1017.73 1018.05 1018.14 1018.21 1018.29 1018.29 1018.45 1018.62 1018.74 1018.76 1018.71 1018.71 1018.63 1018.47 1018.35 1018.21 1018.04 1017.88 1017.61 1017.36 1017.09
1016.99 1016.91 1016.88 1016.89 1016.82 1016.62 1016.42 1016.36 1016.46 1016.28 1016.13 1016.16 1016.17 1016.12 1016.07 1016.09 1016.01 1016.00 1016.06 1016.08 1016.45 1017.39 1017.76 1018.06 1018.43 1018.76 1018.87 1018.98 1019.15 1019.21 1019.23 1019.27 1019.25 1019.26 1019.13 1018.96 1018.88 1018.69 1018.43 1018.29 1018.06 1017.91 1017.77
1017.53 1017.42 1017.52 1017.58 1017.33 1017.25 1017.12 1016.91 1016.94 1016.90 1016.69 1016.81 1016.67 1016.45 1016.39 1016.41 1016.34 1016.26 1016.22 1016.34 1016.40 1016.67 1017.53 1017.98 1018.47 1019.17 1019.45 1019.51 1019.74 1019.75 1019.81 1019.71 1019.76 1019.76 1019.67 1019.54 1019.43 1019.26 1019.13 1019.01 1018.89 1018.73 1018.57
1018.01 1018.02 1018.12 1018.16 1018.07 1017.87 1017.74 1017.56 1017.55 1017.51 1017.48 1017.52 1017.27 1016.95 1016.90 1016.73 1016.64 1016.55 1016.40 1016.43 1016.50 1016.70 1017.45 1018.41 1018.89 1019.59 1019.93 1020.15 1020.25 1020.29 1020.33 1020.25 1020.35 1020.29 1020.23 1020.17 1020.11 1019.97 1019.94 1019.80 1019.57 1019.40 1019.25
1018.47 1018.55 1018.52 1018.63 1018.73 1018.54 1018.30 1018.32 1018.27 1018.19 1018.05 1018.14 1018.10 1017.76 1017.59 1017.38 1017.26 1017.15 1016.95 1016.86 1016.79 1017.03 1017.49 1018.28 1019.18 1019.78 1020.26 1020.51 1020.57 1020.75 1020.91 1020.94 1020.92 1020.82 1020.76 1020.73 1020.65 1020.58 1020.54 1020.54 1020.44 1020.21 1020.13
1018.88 1018.86 1018.95 1019.09 1019.12 1019.13 1019.03 1018.96 1018.94 1018.85 1018.69 1018.76 1018.74 1018.48 1018.31 1017.95 1017.80 1017.74 1017.61 1017.46 1017.31 1017.45 1017.77 1018.37 1019.29 1020.02 1020.62 1020.86 1021.04 1021.20 1021.41 1021.51 1021.56 1021.37 1021.37 1021.30 1021.11 1021.17 1021.18 1021.14 1021.11 1020.87 1020.75
1019.12 1019.17 1019.37 1019.53 1019.55 1019.51 1019.68 1019.58 1019.48 1019.49 1019.37 1019.36 1019.33 1019.17 1018.90 1018.62 1018.46 1018.30 1018.19 1018.10 1018.02 1018.08 1018.37 1018.82 1019.49 1020.10 1020.64 1021.09 1021.20 1021.44 1021.75 1021.90 1022.09 1022.11 1021.95 1021.92 1021.78 1021.70 1021.67 1021.61 1021.57 1021.53 1021.44
1019.35 1019.44 1019.72 1019.81 1019.96 1020.09 1020.11 1020.09 1020.00 1020.02 1019.98 1019.86 1019.75 1019.74 1019.63 1019.37 1019.08 1018.89 1018.83 1018.86 1018.70 1018.74 1018.97 1019.34 1019.78 1020.27 1020.73 1021.14 1021.31 1021.60 1021.96 1022.19 1022.43 1022.37 1022.36 1022.46 1022.35 1022.41 1022.42 1022.28 1022.20 1022.23 1022.09
1019.69 1019.79 1020.12 1020.25 1020.31 1020.47 1020.29 1020.45 1020.49 1020.52 1020.58 1020.53 1020.48 1020.36 1020.19 1020.00 1019.83 1019.61 1019.49 1019.50 1019.44 1019.37 1019.51 1019.73 1020.14 1020.41 1020.82 1021.07 1021.39 1021.67 1022.01 1022.18 1022.36 1022.33 1022.49 1022.63 1022.64 1022.87 1022.91 1022.70 1022.75 1022.70 1022.68
1019.78 1020.16 1020.55 1020.68 1020.73 1020.63 1020.49 1020.50 1020.76 1020.95 1020.98 1021.05 1020.99 1020.84 1020.70 1020.68 1020.51 1020.38 1020.28 1020.12 1020.11 1020.04 1019.97 1020.12 1020.52 1020.85 1020.91 1021.03 1021.34 1021.73 1021.91 1021.97 1022.11 1022.39 1022.36 1022.67 1022.74 1022.86 1023.05 1022.99 1023.01 1023.10 1023.09
1019.74 1020.39 1020.85 1021.10 1021.15 1021.17 1020.91 1020.84 1020.88 1021.26 1021.49 1021.62 1021.55 1021.45 1021.28 1021.27 1021.16 1021.05 1021.07 1021.13 1021.18 1021.09 1020.95 1020.88 1021.06 1021.33 1021.15 1021.06 1021.24 1021.40 1021.68 1022.08 1022.35 1022.47 1022.35 1022.53 1022.86 1022.80 1022.83 1023.09 1023.14 1023.17 1023.24
1019.82 1020.39 1020.91 1021.19 1021.31 1021.58 1021.49 1021.22 1021.25 1021.64 1021.89 1022.04 1022.04 1021.95 1021.80 1021.74 1021.70 1021.66 1021.58 1021.75 1021.83 1021.79 1021.71 1021.65 1021.70 1021.71 1021.66 1021.74 1021.77 1021.59 1021.84 1021.94 1022.06 1022.17 1022.29 1022.41 1022.84 1022.81 1023.00 1022.94 1023.09 1023.26 1023.33
1020.18 1020.60 1021.08 1021.40 1021.39 1021.58 1021.74 1021.53 1021.63 1021.84 1022.12 1022.32 1022.31 1022.34 1022.33 1022.10 1022.03 1022.01 1022.05 1022.13 1022.20 1022.25 1022.06 1021.95 1022.03 1022.01 1022.13 1022.20 1022.16 1022.06 1022.04 1021.98 1021.96 1022.12 1022.16 1022.37 1022.67 1022.77 1022.61 1022.80 1022.89 1023.08 1023.25
Wind_Speed
4 2 2 1 2 2 3 3 3 4 4 4 4 4 4 5 5 3 3 11 12 12 15 14 13 17 17 16 15 15 14 15 14 14 12 14 13 12 13 12 12 11 10
3 3 2 2 2 2 2 2 3 3 3 3 4 4 5 4 5 5 5 5 12 11 15 15 18 18 19 17 16 16 17 17 15 14 13 13 13 13 14 14 13 13 12
4 4 2 2 3 2 3 3 3 2 3 3 5 4 4 6 5 5 5 5 7 10 14 15 16 16 18 18 18 18 17 17 16 16 15 14 13 13 14 14 14 14 14
5 4 3 4 3 3 3 3 3 3 4 4 4 5 5 5 6 6 5 5 6 5 8 16 16 16 18 19 20 19 19 18 17 16 17 16 15 13 14 16 16 15 15
5 4 3 2 3 2 3 2 3 3 3 3 4 4 4 5 6 6 7 7 8 6 5 8 13 14 17 20 19 19 20 18 19 18 17 18 17 16 16 16 17 16 16
3 3 2 2 3 2 2 3 4 3 3 3 4 4 4 5 5 6 8 6 7 7 7 7 5 6 15 17 17 17 18 18 16 18 19 18 18 17 18 18 17 17 18
2 2 1 1 2 3 3 4 2 5 3 3 0 2 4 6 7 6 6 6 7 7 8 6 5 4 5 11 13 14 18 17 20 20 14 17 17 17 18 19 18 19 19
2 0 1 1 2 2 3 3 4 1 2 5 3 0 2 1 3 5 3 4 7 4 6 7 7 7 6 4 6 10 13 18 20 21 17 17 18 16 20 19 18 20 19
5 3 1 2 3 2 3 3 5 6 4 3 6 2 2 3 1 0 1 2 4 4 4 5 6 5 4 4 6 6 9 12 17 20 20 20 18 21 19 16 16 17 18
4 3 3 2 2 1 3 3 4 5 4 4 3 4 2 1 2 1 1 1 3 2 3 3 3 3 3 3 4 4 2 6 8 1 0 5 9 16 20 17 24 18 13
4 5 4 3 3 2 3 4 3 5 4 3 4 2 4 1 1 2 2 1 2 5 4 4 3 3 3 3 2 4 4 8 7 2 2 4 8 10 6 11 5 5 6
3 4 4 4 4 3 3 2 2 5 5 5 4 3 3 3 3 2 2 1 2 2 4 5 5 5 4 4 5 5 9 9 10 11 7 6 6 8 6 5 10 7 9
2 4 5 6 4 5 5 3 1 1 3 3 5 4 3 3 2 3 3 2 2 1 3 5 5 5 5 5 9 13 14 12 11 9 8 7 7 7 7 5 4 4 5
1 4 6 7 8 7 6 6 5 4 3 1 2 3 3 4 2 2 3 4 2 1 1 3 4 5 5 6 11 14 9 14 14 12 12 12 12 11 11 11 12 12 11
5 6 7 7 7 7 7 7 5 6 6 6 4 2 1 1 1 2 1 2 4 3 1 2 2 6 5 6 9 8 8 14 15 14 14 14 15 15 16 16 16 14 14
6 7 8 7 7 8 7 7 6 7 8 6 5 6 5 3 2 1 0 1 1 3 3 1 4 4 5 6 9 8 9 14 17 15 15 15 15 15 15 16 17 17 16
5 7 6 7 7 7 7 7 8 8 9 8 8 8 8 7 5 3 1 1 1 2 4 3 3 2 4 6 7 7 7 8 8 17 17 17 17 16 16 16 16 16 16
5 6 6 7 8 8 8 9 9 8 10 10 9 9 9 6 7 6 4 3 1 3 3 4 2 3 4 5 7 7 6 6 6 15 17 17 17 17 18 17 16 16 15
5 6 7 7 8 8 8 8 8 9 10 8 8 9 8 8 8 5 6 5 3 4 4 3 3 2 2 2 5 5 5 6 5 12 14 16 17 17 16 16 16 16 15
6 6 6 6 7 8 8 8 8 9 9 9 9 9 9 9 8 7 7 6 5 6 6 5 4 3 3 3 3 2 4 4 4 5 10 11 13 16 15 16 16 16 14
5 6 6 6 6 6 4 6 7 7 7 8 8 8 9 12 16 11 5 6 6 5 5 5 3 2 2 1 1 1 3 2 3 2 5 5 5 6 7 10 12 14 13
5 6 5 5 6 3 4 6 6 6 7 7 7 7 7 11 12 16 16 17 10 5 6 3 2 3 3 2 2 2 2 1 1 1 2 4 3 5 4 5 10 11 11
6 5 5 4 5 4 7 9 9 6 6 6 6 6 7 7 9 9 14 15 16 16 11 5 6 3 2 2 3 3 2 1 1 2 1 2 2 3 2 3 8 9 9
7 5 4 4 5 4 6 10 11 7 7 7 6 6 6 7 8 8 9 10 10 10 9 7 7 4 4 3 2 1 2 3 3 1 1 1 0 1 1 2 4 6 7
6 4 3 4 5 4 5 7 8 6 6 6 5 6 4 5 7 6 8 8 7 6 7 11 12 12 13 11 6 2 2 2 1 2 1 1 2 1 1 1 2 4 5
6 5 5 4 6 4 6 4 5 4 4 3 4 5 9 4 6 6 6 5 5 2 3 4 5 7 8 7 9 4 1 3 0 1 3 2 2 2 2 2 2 3 3
Wind_Direction
216 214 252 255 217 199 208 197 216 203 221 211 218 223 231 230 229 220 246 250 243 210 210 209 206 220 219 220 217 225 215 219 225 229 216 221 213 216 216 224 215 218 219
215 199 225 248 248 232 226 203 204 223 236 221 236 228 240 238 246 239 233 244 262 222 214 215 209 218 221 222 220 222 222 221 224 230 222 227 218 219 221 224 220 219 225
221 208 225 242 236 224 248 228 207 212 228 231 244 236 234 235 237 246 245 246 245 264 223 220 224 219 221 223 222 223 223 222 222 224 224 225 229 222 225 227 226 228 223
203 213 224 219 194 177 218 213 192 216 226 219 230 234 246 247 242 235 237 237 235 240 242 227 225 227 225 224 226 224 224 224 225 221 224 225 228 228 223 229 232 230 230
214 207 222 215 213 218 208 200 198 204 225 234 251 248 243 245 245 253 239 237 240 227 224 237 238 237 229 234 236 234 231 227 226 222 227 228 224 224 228 230 231 234 234
212 189 216 236 187 212 239 222 228 211 229 243 250 257 247 247 248 241 245 239 239 237 226 223 226 243 238 237 245 246 240 238 241 230 227 231 231 230 227 230 230 231 232
46 88 152 244 195 204 218 205 204 222 244 209 244 276 257 243 244 239 243 240 237 231 226 220 220 225 245 256 250 240 258 236 235 247 245 259 247 242 240 236 235 234 232
56 94 233 262 241 239 249 220 201 223 234 181 175 146 286 309 246 232 229 231 242 238 234 230 224 222 229 240 256 268 249 236 240 239 219 237 259 274 261 246 242 239 235
47 39 356 280 280 223 233 219 207 207 233 185 219 166 159 232 313 294 93 230 261 249 247 246 234 242 246 246 249 248 256 258 246 231 224 229 232 239 261 273 257 251 243
32 20 14 348 312 275 244 235 215 210 192 199 197 217 250 225 163 64 54 20 57 27 319 265 248 248 243 244 250 252 9 32 45 86 315 254 253 240 237 259 272 250 253
19 10 5 353 329 294 271 245 225 221 195 186 198 159 196 227 137 132 168 214 120 46 31 31 38 48 47 42 43 104 84 29 7 344 202 274 302 301 311 332 306 245 260
6 3 1 8 356 328 307 314 268 219 206 204 203 200 177 175 195 170 179 257 258 51 46 39 45 55 59 50 69 66 67 69 60 52 33 5 333 324 311 313 308 292 250
17 4 15 21 15 7 357 4 14 207 215 211 219 219 218 206 170 167 136 179 186 102 64 47 23 57 60 60 67 62 65 66 65 57 54 48 44 34 22 12 356 341 0
10 41 35 35 32 29 27 31 36 29 42 88 209 227 215 223 211 179 165 147 97 91 101 116 42 63 66 63 80 70 63 66 66 61 60 62 58 55 57 59 60 54 52
53 47 41 39 34 40 42 46 39 31 46 45 46 55 32 338 263 236 218 162 147 151 139 98 111 53 65 72 80 74 67 68 68 64 61 59 57 55 55 54 53 55 66
51 49 41 37 40 38 40 51 43 32 56 39 41 59 43 16 357 338 220 228 220 141 129 94 67 82 64 73 74 69 71 68 67 68 66 63 63 62 62 62 60 57 55
55 55 49 40 40 41 34 44 54 50 52 40 36 47 44 38 44 33 62 141 107 68 101 88 80 81 67 82 75 67 58 61 61 66 65 64 62 60 58 59 63 62 63
69 70 62 56 43 47 51 51 57 54 60 51 37 44 39 38 42 33 46 48 154 97 115 112 95 81 76 70 80 77 61 57 54 62 65 62 59 57 55 54 55 58 55
88 73 67 64 60 49 50 54 58 60 63 55 42 45 39 42 42 36 42 52 53 84 88 121 106 87 94 78 85 70 60 51 38 56 52 56 62 60 60 60 56 53 51
105 90 75 74 69 64 55 63 67 62 59 53 45 44 41 40 41 43 51 43 59 75 82 93 82 92 92 77 70 88 73 49 49 44 57 60 59 60 63 66 66 63 58
106 99 95 72 64 65 66 76 70 60 54 54 47 39 37 49 50 50 52 43 67 80 83 88 84 88 91 116 100 91 79 86 63 74 64 46 60 61 52 60 67 65 65
105 101 86 82 74 65 52 104 82 70 62 51 51 45 43 39 48 55 59 57 49 74 88 88 75 74 101 85 94 117 125 169 109 116 118 77 69 71 49 65 69 70 69
117 103 95 87 74 71 81 98 88 74 67 59 55 48 55 49 51 59 54 53 49 49 54 83 83 50 76 135 141 141 164 140 115 140 120 89 38 67 55 69 76 78 80
126 117 99 85 83 51 78 97 96 85 73 55 44 48 63 52 47 67 69 60 51 50 50 67 70 46 49 66 104 136 149 111 102 153 130 121 48 100 94 59 62 84 83
121 117 115 104 91 56 36 105 102 98 86 69 50 35 50 74 61 54 78 77 67 57 57 67 67 55 57 59 56 79 85 152 154 182 174 122 161 178 223 187 146 122 116
118 116 103 92 90 83 32 148 120 118 102 95 65 38 31 58 94 85 92 91 87 66 38 43 33 40 48 52 48 43 313 251 226 198 168 233 169 218 191 174 191 172 155